SCP
-0 -0 -0 -0 -0 0 0 0 0 0 0 0 0 0 0 0 0 0 0 0 0 0 0 0 0 0 0 0 1 1 1 1 0 0 0 0 0 0 0 0 0 0 0
-0 -0 -0 -0 0 0 0 0 0 0 0 0 0 0 0 0 0 0 0 0 0 0 0 0 0 0 0 0 0 1 1 1 0 0 0 0 0 0 0 0 0 0 0
-0 -0 -0 0 0 0 0 0 0 0 0 0 0 0 0 0 0 0 0 0 0 0 0 0 0 0 0 0 0 0 1 1 1 0 0 0 0 0 0 0 0 0 0
-0 -0 0 0 0 0 0 0 0 0 0 0 0 0 0 0 0 0 0 0 0 0 0 0 0 0 0 0 0 0 0 0 1 0 0 0 0 0 0 0 0 0 0
0 0 0 0 0 0 0 0 0 0 0 0 0 0 0 0 0 0 0 0 0 0 0 0 0 0 0 0 0 0 0 0 0 1 0 0 0 0 0 0 0 0 0
0 0 0 0 0 0 0 0 0 0 0 0 0 0 0 0 0 0 0 0 0 0 0 0 0 0 0 0 0 0 0 0 0 1 0 0 0 0 0 0 0 0 0
0 0 0 0 0 0 0 0 0 0 0 0 0 0 0 0 0 0 0 0 0 0 0 0 0 0 0 0 0 0 0 0 0 1 1 0 0 0 0 0 0 0 0
0 0 0 0 0 0 0 0 0 0 0 0 0 0 0 0 0 0 0 0 0 0 0 0 0 0 0 0 0 0 0 0 0 0 1 0 0 0 0 0 0 0 0
1 1 0 0 0 0 0 0 0 0 0 0 0 0 0 0 0 0 0 0 0 0 0 0 0 0 0 0 0 0 0 0 0 0 0 0 0 0 0 0 0 0 0
1 1 1 0 0 0 0 0 0 0 0 1 1 0 0 0 0 0 0 0 0 0 0 0 0 0 0 0 0 0 0 0 0 0 0 0 0 0 0 0 0 0 0
0 0 1 1 1 0 0 0 0 1 1 1 1 1 1 1 0 0 0 0 0 0 0 0 0 0 0 0 0 0 0 0 0 0 0 0 0 0 0 0 0 0 0
0 0 0 0 0 0 0 0 1 1 1 1 1 1 1 1 1 1 0 0 0 0 0 0 0 0 0 0 0 0 0 0 0 0 0 0 0 0 0 0 0 0 0
0 0 0 0 0 0 0 1 1 1 1 1 1 1 1 1 1 1 1 0 0 0 0 0 0 0 0 0 0 0 0 0 0 0 0 0 0 -0 -0 -0 -0 -0 0
0 0 0 0 0 0 0 1 1 1 1 1 1 1 1 1 1 1 1 1 1 0 0 0 0 0 0 0 0 0 0 0 0 0 0 -0 -0 -0 -0 -0 -0 0 0
0 0 0 0 0 0 0 0 1 1 1 1 1 1 1 1 1 1 1 1 1 1 0 0 0 0 0 0 0 0 0 0 -0 -0 -0 -0 -0 -0 -0 0 0 0 0
0 0 0 0 0 0 0 0 0 0 0 1 1 1 1 1 1 1 1 1 1 1 1 0 0 0 0 0 0 0 0 0 0 0 0 0 0 0 0 0 0 0 0
0 0 0 0 0 0 0 0 0 0 0 0 0 1 1 1 1 1 1 1 1 1 1 1 1 0 0 0 0 0 0 0 0 0 0 0 0 0 0 0 0 0 0
0 0 0 0 0 0 0 0 0 0 0 0 0 0 0 1 1 1 1 1 1 1 1 1 1 1 0 0 0 0 0 0 0 0 0 0 0 0 0 0 0 0 0
0 0 0 0 0 0 0 0 0 0 0 0 0 0 0 0 1 1 1 1 1 1 1 1 1 1 1 0 0 0 0 0 0 0 0 0 0 -0 -0 -0 0 0 0
0 0 0 0 0 0 0 0 0 0 0 0 0 0 0 0 0 1 1 1 1 1 1 1 1 1 1 1 1 0 0 0 0 0 0 0 0 0 0 0 -0 -0 -0
0 0 0 0 0 0 0 0 0 0 0 0 0 0 0 0 0 0 0 1 1 1 1 1 1 1 1 1 1 1 0 0 0 0 0 0 0 0 0 0 0 0 -0
0 0 0 0 0 0 0 0 0 0 0 0 0 0 0 0 0 0 0 0 0 0 1 1 1 1 1 1 1 0 0 0 0 0 0 0 0 0 0 0 0 0 -0
0 0 0 0 0 0 0 0 0 0 0 0 0 0 0 0 0 0 0 0 0 0 0 1 1 0 0 0 0 0 0 0 0 0 0 1 1 0 0 0 0 0 -0
0 0 0 0 0 0 0 0 0 0 0 0 0 0 0 0 0 0 0 0 0 0 0 0 0 0 0 0 0 0 0 0 0 0 0 0 1 0 0 0 0 0 0
0 0 0 0 0 0 0 0 0 0 0 0 0 0 0 0 0 0 0 0 0 0 0 0 0 0 0 0 0 0 0 0 0 0 0 0 0 0 0 0 0 0 0
0 0 0 0 0 0 0 0 0 0 0 0 0 0 0 0 0 0 0 0 0 0 0 0 0 0 0 0 0 0 0 0 0 0 0 0 0 0 0 0 0 0 0
Wind_Speed
5 3 3 3 5 3 4 4 4 3 5 5 5 5 6 6 7 6 4 7 10 11 12 14 15 16 16 17 19 21 24 24 23 22 21 20 19 17 16 15 14 12 11
4 3 5 4 5 5 4 3 4 4 4 3 5 5 7 7 6 7 6 5 10 10 10 12 13 15 16 17 16 18 22 24 23 23 22 22 20 19 18 16 15 13 12
5 5 5 5 4 4 4 4 4 4 4 3 5 5 6 6 7 7 7 6 5 7 9 9 11 13 15 16 16 16 18 22 23 23 24 23 21 20 19 18 16 15 13
7 5 5 5 4 4 3 3 4 4 3 4 3 4 5 5 7 7 7 5 5 6 5 5 9 12 14 15 16 16 16 18 22 24 25 24 23 21 20 19 17 16 15
8 6 6 5 6 4 4 4 3 4 4 4 4 4 5 5 5 6 6 7 6 6 7 4 7 10 12 13 14 14 15 15 19 24 26 27 25 23 21 19 18 17 16
8 7 6 6 7 5 5 4 5 5 5 5 6 5 6 5 5 4 6 5 4 6 7 7 7 5 8 11 12 13 13 13 17 24 27 28 27 25 22 19 18 17 16
7 6 6 6 6 6 6 8 6 6 5 4 6 6 5 5 2 3 4 4 4 5 5 6 6 6 5 8 11 11 12 13 15 22 26 27 27 26 23 20 18 17 16
7 7 6 6 7 6 8 8 6 6 6 4 5 6 5 3 5 3 3 3 4 4 5 5 6 6 7 6 2 6 9 10 13 20 25 27 27 26 23 20 18 17 16
6 7 7 7 6 7 7 7 7 8 6 5 4 5 5 4 5 3 3 3 3 4 4 5 6 6 7 6 5 3 4 5 8 15 22 24 25 26 24 21 19 18 17
5 6 7 7 7 6 7 8 7 6 7 6 4 5 6 5 6 5 3 4 4 4 3 4 5 5 6 6 4 3 1 2 5 10 17 22 26 26 24 21 19 18 17
4 6 6 6 7 6 8 8 7 7 6 7 5 5 6 5 7 6 7 5 4 2 1 2 3 5 6 6 5 8 9 10 12 16 21 25 26 25 24 21 20 19 18
3 5 5 6 6 6 6 6 7 8 7 7 6 6 6 6 6 6 7 7 6 2 0 1 2 3 4 6 8 10 13 15 17 21 23 24 25 24 23 21 20 19 19
3 3 4 5 5 5 5 5 6 7 7 7 7 7 7 8 7 7 7 7 7 4 2 2 2 2 4 5 7 9 13 15 16 18 19 20 21 20 20 19 19 19 18
2 3 4 5 5 5 6 5 6 7 7 7 9 9 8 9 8 8 7 7 6 5 3 1 3 3 4 5 7 6 10 12 13 14 15 16 17 16 16 16 15 15 16
1 3 4 5 5 6 6 6 6 7 7 8 9 9 8 8 8 8 7 7 6 5 3 3 3 5 5 6 7 6 9 10 11 12 12 13 14 14 14 14 14 13 13
3 4 4 5 5 6 6 6 7 6 7 8 7 8 8 8 7 7 7 6 7 6 4 3 3 6 6 8 9 8 8 11 10 10 11 12 13 13 14 14 14 14 14
3 4 5 5 6 6 6 6 7 7 8 8 8 8 9 9 7 7 7 7 7 7 6 4 3 5 8 8 9 8 8 9 10 14 13 12 12 12 13 13 13 13 14
3 4 4 5 5 5 5 6 7 7 7 7 8 8 9 8 9 7 7 8 7 7 6 6 4 6 8 8 9 9 8 9 8 14 15 13 12 12 12 12 13 13 13
3 4 4 4 5 5 5 5 6 6 6 6 6 7 8 8 8 6 7 7 6 6 5 5 4 4 5 6 8 8 9 6 8 9 13 13 13 12 12 13 13 13 14
4 4 5 5 5 5 5 5 4 4 4 4 5 5 6 7 7 7 6 6 5 5 4 4 4 4 4 5 5 5 5 5 6 5 6 8 11 13 13 13 13 13 14
4 4 4 5 5 5 7 8 5 4 4 3 4 4 6 8 10 8 6 4 3 3 3 4 4 3 4 4 4 3 3 3 3 3 3 5 7 8 9 10 11 10 12
4 4 5 5 6 7 8 9 8 4 4 4 5 5 5 6 7 8 10 10 9 4 3 2 2 2 2 1 1 2 2 3 3 2 2 2 4 4 3 4 4 2 3
3 3 4 4 5 6 5 7 8 5 6 6 6 5 5 5 5 5 5 5 8 9 7 4 2 3 3 2 1 0 1 2 2 0 1 3 3 4 4 6 5 5 4
2 3 4 4 4 5 3 4 6 4 6 7 7 7 7 7 9 8 4 6 8 9 8 7 7 6 5 3 2 1 1 0 1 1 2 2 3 3 4 5 6 5 5
2 2 2 3 4 5 3 2 6 4 6 7 8 9 9 9 12 12 4 6 7 7 8 9 9 7 7 6 3 0 0 2 1 1 2 1 1 2 3 4 5 4 3
2 3 2 3 3 5 4 2 6 2 5 5 5 7 11 10 11 13 6 6 7 6 5 6 5 4 5 6 4 3 1 0 1 1 2 2 1 0 2 2 2 2 2
Wind_Direction
228 238 257 280 275 264 221 222 253 266 272 262 267 269 273 268 268 269 262 216 228 251 268 275 273 268 263 255 245 233 224 221 216 209 203 199 195 191 190 186 182 179 176
247 264 255 259 271 272 281 274 260 265 271 298 290 285 282 282 277 283 283 246 210 229 260 276 280 278 274 268 257 241 229 223 217 209 203 197 194 191 189 186 182 182 180
245 258 274 268 271 278 273 270 272 267 271 280 278 281 278 281 286 287 287 295 281 225 232 265 282 284 281 276 268 253 234 224 216 207 201 195 192 189 187 184 182 181 180
250 260 274 277 287 276 268 256 262 270 273 282 291 292 278 270 270 273 273 276 294 307 276 258 286 289 287 280 272 263 246 229 215 204 198 193 190 187 185 182 181 180 179
254 252 264 279 275 271 274 276 284 288 297 300 287 268 278 270 268 263 275 281 290 297 304 298 273 274 282 283 277 270 259 237 214 201 195 192 188 185 182 181 180 179 179
255 257 257 260 270 270 273 274 283 275 285 283 291 293 273 279 271 271 269 265 270 297 311 321 305 285 270 276 276 271 264 245 214 199 195 192 187 182 177 178 178 178 180
264 259 268 267 265 265 270 274 275 274 271 281 284 285 272 234 249 268 261 285 300 310 310 316 312 322 300 264 256 262 262 248 219 201 196 193 186 176 171 175 177 177 182
276 266 263 266 264 268 267 270 269 281 288 282 293 298 290 249 193 218 242 255 293 303 312 324 327 318 312 305 278 251 265 248 225 206 198 192 181 167 164 170 177 179 183
289 289 281 273 268 265 266 269 269 266 275 278 269 288 298 316 316 216 213 246 276 301 310 336 326 333 320 314 311 253 270 250 225 206 196 185 166 156 158 171 179 182 187
306 300 292 286 272 263 261 263 264 265 267 268 260 250 264 291 293 299 257 206 216 255 315 323 336 343 343 337 352 12 52 134 164 169 166 158 151 151 161 172 180 185 191
292 300 301 295 281 270 264 263 272 263 258 259 260 258 254 245 245 265 286 292 271 237 327 335 354 358 4 5 14 69 82 93 109 125 135 143 148 154 163 174 183 190 196
275 287 299 296 284 275 267 265 267 260 255 257 259 257 261 261 257 257 270 276 280 274 25 11 359 28 34 44 65 86 95 99 107 118 128 138 149 158 168 179 188 195 201
256 270 282 281 285 284 278 273 264 265 260 259 260 262 264 264 267 260 262 272 281 275 204 200 83 70 79 87 98 106 110 113 119 128 137 147 156 166 176 186 194 200 206
254 260 265 272 280 280 279 277 274 268 267 268 267 266 266 263 261 256 254 263 270 271 248 197 137 128 120 122 115 135 125 129 134 142 151 159 168 176 184 192 199 206 212
284 266 273 281 288 290 291 288 279 280 278 272 272 267 264 268 260 257 250 245 249 258 248 200 183 142 158 139 152 157 149 153 157 162 169 176 181 188 193 198 204 210 216
347 320 310 304 299 296 290 287 284 282 285 280 278 280 277 270 265 258 250 243 241 247 251 211 203 168 168 165 174 180 167 165 184 187 191 194 197 201 203 206 209 213 219
355 337 324 311 304 299 299 293 289 293 288 291 291 287 284 281 271 260 247 239 236 235 241 238 213 173 178 192 175 194 187 193 197 198 205 209 210 209 210 213 216 219 223
349 340 321 314 309 306 301 294 293 298 299 301 304 303 297 292 280 266 254 243 238 233 237 241 217 194 194 196 191 202 205 211 221 190 200 210 215 217 218 219 222 225 229
1 348 341 339 336 329 320 313 307 306 307 313 320 317 317 311 298 283 266 255 245 238 229 237 226 202 196 193 197 207 215 226 237 185 192 206 214 218 221 223 226 230 233
24 13 7 4 358 353 349 342 335 335 335 345 348 348 349 344 332 315 285 269 255 243 230 231 226 207 197 190 196 199 207 209 237 221 193 195 196 208 219 224 228 233 236
41 32 21 21 19 23 17 360 359 12 13 10 17 19 23 22 21 6 351 333 300 265 246 236 230 216 197 186 191 193 198 197 226 245 208 191 179 192 196 209 220 230 234
49 40 35 34 37 39 25 10 351 35 30 28 31 34 32 30 36 43 42 40 31 6 320 280 242 227 193 161 166 186 179 189 206 216 218 189 163 164 156 110 54 14 251
58 47 42 45 54 57 38 24 2 19 47 38 34 35 40 35 18 33 49 65 60 48 24 358 46 54 68 58 47 181 215 214 215 353 246 189 150 135 114 87 59 40 38
40 41 37 48 60 67 53 23 336 46 56 51 44 41 45 41 24 1 38 57 57 44 30 42 60 58 51 43 44 33 22 284 144 29 315 215 169 151 132 106 90 60 52
7 359 36 45 59 77 61 355 322 72 71 65 55 43 34 44 15 349 40 69 72 81 79 67 63 73 65 47 25 42 200 222 195 87 350 312 164 162 145 125 117 115 86
335 332 2 24 48 68 67 13 318 53 77 81 80 77 56 29 12 0 27 60 66 62 76 102 106 132 105 88 67 40 3 276 144 109 16 346 29 199 148 101 70 84 120